This is the latest recevied weather packets stored in our database for station/object YB2YEN-13. If no packets are shown the sender has not sent any weather packets the latest 10 day(s).
| Time | Temp. | Humidity | Pressure | Rain* | Wind** | Luminosity | Snow |
|---|---|---|---|---|---|---|---|
| 1777951928 | 32.78° C | 96% | 979 hPa | - | - | 0 W/m² | - |
| 1777951606 | 33.33° C | 89% | 979 hPa | - | - | 0 W/m² | - |
| 1777951284 | 32.78° C | 92% | 979 hPa | - | - | 0 W/m² | - |
| 1777950962 | 32.78° C | 90% | 979 hPa | - | - | 0 W/m² | - |
| 1777950639 | 32.22° C | 90% | 979 hPa | - | - | 0 W/m² | - |
| 1777950318 | 32.22° C | 96% | 979 hPa | - | - | 0 W/m² | - |
| 1777949995 | 31.11° C | 96% | 979 hPa | - | - | 0 W/m² | - |
| 1777949673 | 32.22° C | 94% | 979 hPa | - | - | 0 W/m² | - |
| 1777949352 | 31.67° C | 95% | 979 hPa | - | - | 0 W/m² | - |
| 1777949030 | 31.67° C | 99% | 979 hPa | - | - | 0 W/m² | - |
| 1777948707 | 30.56° C | 99% | 979 hPa | - | - | 0 W/m² | - |
| 1777948386 | 31.67° C | 99% | 979 hPa | - | - | 0 W/m² | - |
| 1777948064 | 30.56° C | 99% | 979 hPa | - | - | 0 W/m² | - |
| 1777947742 | 30.56° C | 99% | 979 hPa | - | - | 0 W/m² | - |
| 1777947420 | 30.56° C | 99% | 979 hPa | - | - | 0 W/m² | - |
| 1777947097 | 30° C | 99% | 979 hPa | - | - | 0 W/m² | - |
| 1777946775 | 30.56° C | 99% | 979 hPa | - | - | 0 W/m² | - |
| 1777946454 | 30° C | 99% | 979 hPa | - | - | 0 W/m² | - |
| 1777946131 | 30° C | 99% | 979 hPa | - | - | 0 W/m² | - |
| 1777945809 | 30° C | 99% | 979 hPa | - | - | 0 W/m² | - |
| 1777945487 | 28.89° C | 99% | 979 hPa | - | - | 0 W/m² | - |
| 1777945165 | 28.89° C | 99% | 979 hPa | - | - | 0 W/m² | - |
| 1777944843 | 28.33° C | 99% | 979 hPa | - | - | 0 W/m² | - |
| 1777944521 | 28.33° C | 99% | 979 hPa | - | - | 0 W/m² | - |
| 1777944199 | 28.89° C | 99% | 979 hPa | - | - | 0 W/m² | - |
* Rain since midnight (hover to see other rain measurements)
** Current wind speed in m/s (hover to see current wind gust speed)